Stations météo

réclame
Mon MeteoGroup
Inverbervie, Grande-Bretagne (3088): Température de l'air & dewpoint: 20.08.2019 02:00:00 - 26.08.2019 02:00:00 (BST)Inverbervie, Grande-Bretagne (3088): Température de l'air -20cm & Température de l'air -100cm: 20.08.2019 02:00:00 - 26.08.2019 02:00:00 (BST)Inverbervie, Grande-Bretagne (3088): Vitesse du vent & gusts: 20.08.2019 02:00:00 - 26.08.2019 02:00:00 (BST)Inverbervie, Grande-Bretagne (3088): Direction du vent: 20.08.2019 02:00:00 - 26.08.2019 02:00:00 (BST)Inverbervie, Grande-Bretagne (3088): reduced air pressure: 20.08.2019 02:00:00 - 26.08.2019 02:00:00 (BST)Inverbervie, Grande-Bretagne (3088): visibility: 20.08.2019 02:00:00 - 26.08.2019 02:00:00 (BST)Inverbervie, Grande-Bretagne (3088): Quantités de précipitations: 20.08.2019 02:00:00 - 26.08.2019 02:00:00 (BST)
Date & Time tt [°C] td [°C] tt -20cm [°C] tt -100cm [°C] ff [km/h] ff [knt] fx [km/h] fx [knt] dd ppp [hPa] vv [km] rr [mm]
26.08.2019 02:00:00 13,7 12,2 - - 8 4 - - W 1016,2 5 0,0
26.08.2019 01:00:00 14,5 13,0 - - 11 6 - - SSE 1016,6 9 0,0
26.08.2019 00:00:00 14,9 12,9 - - 9 5 - - SSE 1017,2 9 0,0
25.08.2019 23:00:00 15,4 12,9 - - 13 7 - - SSE 1017,3 11 0,0
25.08.2019 22:00:00 15,5 13,0 - - 13 7 - - SE 1017,8 14 0,0
25.08.2019 21:00:00 15,7 13,0 - - 9 5 - - S 1018,0 13 0,0
25.08.2019 20:00:00 15,9 13,8 - - 5 3 - - S 1017,8 10 0,0
25.08.2019 19:00:00 17,0 14,4 - - 11 6 - - SSE 1017,6 10 0,0
25.08.2019 18:00:00 17,6 14,9 - - 9 5 - - S 1017,9 10 0,0
25.08.2019 17:00:00 17,4 15,4 - - 5 3 - - SSE 1018,3 7 0,0
25.08.2019 16:00:00 17,4 15,5 - - 11 6 - - SE 1018,5 7 0,0
25.08.2019 15:00:00 17,2 14,5 - - 13 7 - - ESE 1018,8 9 0,0
25.08.2019 14:00:00 19,7 14,3 - - 9 5 - - ESE 1018,8 28 0,0
25.08.2019 13:00:00 19,4 14,2 - - 9 5 - - SE 1018,8 12 0,0
25.08.2019 12:00:00 18,3 14,7 - - 9 5 - - SSE 1019,1 10 0,0
25.08.2019 11:00:00 17,7 14,9 - - 11 6 - - E 1019,0 13 0,0
25.08.2019 10:00:00 17,7 14,8 15,7 14,4 8 4 - - ENE 1019,0 14 0,0
25.08.2019 09:00:00 15,9 15,3 - - 5 3 - - NW 1018,9 9 0,0
25.08.2019 08:00:00 15,5 14,9 - - 11 6 - - ENE 1018,6 7 0,0
25.08.2019 07:00:00 13,1 12,9 - - 11 6 - - NE 1018,6 9 0,0
25.08.2019 06:00:00 13,6 12,3 - - 9 5 - - ENE 1018,2 13 0,0
25.08.2019 05:00:00 13,9 13,9 - - 8 4 - - NNE 1018,1 9 0,2
25.08.2019 04:00:00 13,3 13,3 - - 8 4 - - NNW 1018,1 5 0,0
25.08.2019 03:00:00 13,3 13,3 - - 4 2 - - N 1018,1 1,6 0,0
25.08.2019 02:00:00 13,1 13,0 - - 4 2 - - NE 1018,3 0,1 0,0
25.08.2019 01:00:00 13,0 12,9 - - 9 5 - - ENE 1018,3 1,0 0,0
25.08.2019 00:00:00 13,6 13,5 - - 11 6 - - E 1018,3 2,1 0,0
24.08.2019 23:00:00 13,7 13,5 - - 11 6 - - ENE 1018,5 2,9 0,0
24.08.2019 22:00:00 14,0 13,8 - - 9 5 - - E 1018,6 5 0,0
24.08.2019 21:00:00 14,5 14,1 - - 9 5 - - ESE 1018,4 5 0,0
24.08.2019 20:00:00 15,1 13,8 - - 11 6 - - SE 1018,1 9 0,0
24.08.2019 19:00:00 15,8 13,9 - - 13 7 - - SSE 1017,9 11 0,0
24.08.2019 18:00:00 16,8 13,2 - - 13 7 - - ESE 1018,0 30 0,0
24.08.2019 17:00:00 18,0 13,3 - - 11 6 - - SSE 1018,1 40 0,0
24.08.2019 16:00:00 17,7 14,1 - - 9 5 - - SSE 1018,2 19 0,0
24.08.2019 15:00:00 18,7 14,5 - - 15 8 - - S 1018,2 23 0,0
24.08.2019 14:00:00 17,4 14,1 - - 18 10 - - S 1018,2 28 0,0
24.08.2019 13:00:00 17,1 14,3 - - 22 12 - - S 1018,1 27 0,0
24.08.2019 12:00:00 15,1 13,9 - - 21 11 - - SSW 1018,2 15 0,0
24.08.2019 11:00:00 14,1 13,9 - - 18 10 - - S 1018,1 7 0,0
24.08.2019 10:00:00 14,4 14,1 15,7 14,4 16 9 - - S 1018,1 6 0,0
24.08.2019 09:00:00 14,0 13,7 - - 16 9 - - SSW 1017,9 6 0,0
24.08.2019 08:00:00 14,2 14,1 - - 21 11 - - SW 1017,8 9 0,0
24.08.2019 07:00:00 13,7 13,6 - - 22 12 - - SW 1017,9 9 0,0
24.08.2019 06:00:00 13,6 13,4 - - 22 12 - - SW 1017,9 8 0,0
24.08.2019 05:00:00 13,7 13,4 - - 21 11 - - SSW 1017,9 12 0,0
24.08.2019 04:00:00 13,6 13,3 - - 21 11 - - SSW 1018,3 10 0,0
24.08.2019 03:00:00 13,9 13,4 - - 24 13 - - SSW 1018,4 14 0,0
24.08.2019 02:00:00 14,1 13,4 - - 21 11 - - SSW 1018,4 29 0,0
24.08.2019 01:00:00 13,8 13,2 - - 18 10 - - SSW 1018,6 21 0,0
24.08.2019 00:00:00 14,2 13,2 - - 22 12 - - SSW 1018,7 20 0,0
23.08.2019 23:00:00 14,5 13,3 - - 24 13 - - SSW 1018,9 22 0,0
23.08.2019 22:00:00 15,3 13,5 - - 18 10 - - SW 1018,9 35 0,0
23.08.2019 21:00:00 16,3 13,5 - - 16 9 - - SW 1018,8 30 0,0
23.08.2019 20:00:00 17,1 13,5 - - 18 10 - - WSW 1018,7 40 0,0
23.08.2019 19:00:00 15,7 13,5 - - 21 11 - - SSW 1018,7 30 0,0
23.08.2019 18:00:00 16,4 13,1 - - 16 9 - - S 1018,6 25 0,0
23.08.2019 17:00:00 20,8 12,6 - - 34 18 50 27 WSW 1018,1 35 0,0
23.08.2019 16:00:00 20,3 11,4 - - 28 15 46 25 WSW 1018,4 30 0,0
23.08.2019 15:00:00 19,6 13,0 - - 26 14 - - SSW 1018,5 22 0,0
23.08.2019 14:00:00 18,9 13,4 - - 26 14 48 26 SSW 1018,3 30 0,0
23.08.2019 13:00:00 19,0 13,4 - - 31 17 52 28 SSW 1018,0 24 0,0
23.08.2019 12:00:00 20,0 12,6 - - 41 22 54 29 WSW 1017,4 28 0,0
23.08.2019 11:00:00 19,0 12,9 - - 41 22 55 30 WSW 1017,0 19 0,0
23.08.2019 10:00:00 18,4 13,8 15,2 14,4 37 20 52 28 SW 1016,7 24 0,0
23.08.2019 09:00:00 15,5 13,4 - - 22 12 - - SW 1016,7 15 0,0
23.08.2019 08:00:00 15,1 13,1 - - 22 12 - - SW 1016,2 20 0,0
23.08.2019 07:00:00 15,2 13,4 - - 26 14 55 30 WSW 1015,7 24 0,0
23.08.2019 06:00:00 15,0 13,6 - - 35 19 68 37 W 1014,5 19 0,0
23.08.2019 05:00:00 15,3 13,8 - - 46 25 65 35 WSW 1014,2 35 0,0
23.08.2019 04:00:00 14,9 14,1 - - 31 17 - - SW 1014,3 27 0,0
23.08.2019 03:00:00 14,8 13,9 - - 24 13 - - SW 1014,5 21 0,0
23.08.2019 02:00:00 14,5 13,9 - - 26 14 - - SW 1013,9 24 0,0
23.08.2019 01:00:00 14,4 14,1 - - 34 18 - - SW 1013,5 40 0,0
23.08.2019 00:00:00 14,2 14,0 - - 34 18 46 25 SW 1013,1 30 0,0
22.08.2019 23:00:00 14,1 14,0 - - 26 14 - - WSW 1012,9 50 0,0
22.08.2019 22:00:00 14,1 14,1 - - 34 18 - - SW 1012,2 0,1 0,0
22.08.2019 21:00:00 13,9 13,7 - - 26 14 - - SW 1012,0 11 0,0
22.08.2019 20:00:00 15,5 13,9 - - 29 16 - - SW 1011,1 35 0,0
22.08.2019 19:00:00 15,2 14,0 - - 28 15 50 27 SW 1011,0 28 0,0
22.08.2019 18:00:00 14,7 13,6 - - 41 22 57 31 SSW 1010,8 28 0,0
22.08.2019 17:00:00 15,5 13,0 - - 44 24 67 36 SSW 1010,6 30 0,0
22.08.2019 16:00:00 17,0 12,2 - - 50 27 68 37 SW 1010,9 27 0,0
22.08.2019 15:00:00 15,0 11,2 - - 34 18 50 27 SSW 1011,5 19 0,0
22.08.2019 14:00:00 16,0 10,9 - - 37 20 46 25 SSW 1011,6 17 0,0
22.08.2019 13:00:00 15,2 11,3 - - 41 22 55 30 S 1012,3 16 0,0
22.08.2019 12:00:00 15,1 11,9 - - 44 24 55 30 SSW 1012,4 14 0,0
22.08.2019 11:00:00 13,9 12,1 - - 37 20 50 27 SSW 1012,6 27 0,0
22.08.2019 10:00:00 13,8 12,0 15,2 14,5 37 20 46 25 SSW 1012,9 20 0,0
22.08.2019 09:00:00 13,1 12,1 - - 29 16 - - SW 1012,9 13 0,0
22.08.2019 08:00:00 10,9 10,6 - - 24 13 - - WSW 1013,5 18 0,0
22.08.2019 07:00:00 10,1 9,7 - - 29 16 - - WSW 1013,2 17 0,0
22.08.2019 06:00:00 9,8 9,3 - - 34 18 - - WSW 1013,2 17 0,0
22.08.2019 05:00:00 9,4 9,1 - - 29 16 - - SW 1013,4 18 0,0
22.08.2019 04:00:00 9,0 8,7 - - 15 8 - - WSW 1013,5 20 0,0
22.08.2019 03:00:00 10,0 9,5 - - 22 12 - - WSW 1013,7 26 0,0
22.08.2019 02:00:00 10,9 10,6 - - 24 13 - - WSW 1013,6 35 0,0
22.08.2019 01:00:00 11,6 11,5 - - 28 15 - - SW 1013,5 26 0,0
22.08.2019 00:00:00 11,9 11,6 - - 28 15 - - SW 1013,3 24 0,0
21.08.2019 23:00:00 12,4 12,0 - - 35 19 48 26 SSW 1013,3 10 0,0
21.08.2019 22:00:00 12,6 11,9 - - 41 22 52 28 SSW 1013,5 18 0,6
21.08.2019 21:00:00 12,3 11,7 - - 39 21 57 31 SSW 1013,9 7 0,0
21.08.2019 20:00:00 13,0 12,2 - - 35 19 - - SSW 1014,2 17 0,2
21.08.2019 19:00:00 12,9 12,4 - - 35 19 50 27 SSW 1014,9 10 0,4
21.08.2019 18:00:00 13,3 12,3 - - 42 23 54 29 SSW 1015,7 8 0,4
21.08.2019 17:00:00 14,3 11,9 - - 34 18 - - S 1015,9 20 0,0
21.08.2019 16:00:00 14,8 11,7 - - 34 18 46 25 SSW 1016,3 16 0,0
21.08.2019 15:00:00 15,0 11,8 - - 34 18 - - S 1016,9 23 0,0
21.08.2019 14:00:00 14,4 12,9 - - 34 18 - - S 1017,4 22 0,0
21.08.2019 13:00:00 14,0 12,1 - - 29 16 - - S 1018,4 30 0,0
21.08.2019 12:00:00 14,7 13,0 - - 28 15 - - S 1019,0 23 0,0
21.08.2019 11:00:00 14,2 12,9 - - 24 13 - - SSW 1019,4 30 0,0
21.08.2019 10:00:00 13,4 12,2 15,2 14,5 21 11 - - SSW 1019,6 14 0,0
21.08.2019 09:00:00 11,9 11,3 - - 16 9 - - SSW 1020,2 13 0,0
21.08.2019 08:00:00 11,0 10,3 - - 11 6 - - WSW 1020,3 14 0,0
21.08.2019 07:00:00 10,1 9,5 - - 16 9 - - SW 1020,1 17 0,0
21.08.2019 06:00:00 9,6 8,8 - - 13 7 - - SW 1020,2 19 0,0
21.08.2019 05:00:00 9,2 8,5 - - 13 7 - - WSW 1020,4 17 0,0
21.08.2019 04:00:00 9,4 8,4 - - 13 7 - - SW 1020,5 22 0,0
21.08.2019 03:00:00 9,3 9,0 - - 11 6 - - W 1020,7 30 0,0
21.08.2019 02:00:00 9,1 8,9 - - 11 6 - - WNW 1020,6 17 0,0
21.08.2019 01:00:00 10,3 9,7 - - 13 7 - - W 1020,6 15 0,0
21.08.2019 00:00:00 10,8 10,6 - - 13 7 - - W 1020,5 40 0,0
20.08.2019 23:00:00 11,2 11,2 - - 9 5 - - WNW 1020,4 0,1 0,0
20.08.2019 22:00:00 11,4 11,3 - - 9 5 - - WNW 1020,2 4,6 0,0
20.08.2019 21:00:00 11,6 11,4 - - 5 3 - - W 1020,2 11 0,0
20.08.2019 20:00:00 12,2 12,0 - - 8 4 - - S 1019,7 8 0,4
20.08.2019 19:00:00 12,2 11,8 - - 13 7 - - SE 1019,6 18 0,6
20.08.2019 18:00:00 12,2 10,8 - - 13 7 - - S 1019,5 14 0,0
20.08.2019 17:00:00 13,3 11,0 - - 15 8 - - SSE 1018,9 30 0,0
20.08.2019 16:00:00 13,2 10,3 - - 16 9 - - S 1018,6 50 0,0
20.08.2019 15:00:00 13,6 10,1 - - 16 9 - - S 1018,3 30 0,0
20.08.2019 14:00:00 13,7 9,7 - - 16 9 - - S 1017,9 45 0,0
20.08.2019 13:00:00 13,1 9,9 - - 18 10 - - S 1017,5 45 0,0
20.08.2019 12:00:00 13,3 9,6 - - 13 7 - - S 1017,0 50 0,0
20.08.2019 11:00:00 14,1 7,7 - - 9 5 - - W 1016,5 35 0,0
20.08.2019 10:00:00 12,9 8,2 15,4 14,7 9 5 - - W 1015,9 35 0,0
20.08.2019 09:00:00 11,8 8,4 - - 8 4 - - W 1015,5 45 0,0
20.08.2019 08:00:00 11,0 8,3 - - 11 6 - - NW 1014,7 45 0,0
20.08.2019 07:00:00 10,5 8,4 - - 15 8 - - NW 1014,0 50 0,0
20.08.2019 06:00:00 10,4 8,3 - - 9 5 - - NNW 1013,3 50 0,0
20.08.2019 05:00:00 10,6 8,0 - - 9 5 - - WNW 1012,6 50 0,0
20.08.2019 04:00:00 10,7 8,5 - - 9 5 - - WNW 1011,9 50 0,0
20.08.2019 03:00:00 11,1 8,6 - - 8 4 - - WNW 1011,3 45 0,0
20.08.2019 02:00:00 11,7 9,0 - - 18 10 - - NNW 1010,6 50 0,0

tt = Température de l'air
td = dewpoint
tt -20cm = Température de l'air -20cm
tt -100cm = Température de l'air -100cm
ff = Vitesse du vent
fx = gusts
dd = Direction du vent
ppp = reduced air pressure
vv = visibility
rr = Quantités de précipitations

stations d'obs. à proximité